CW0350 Weather Reports


Display with metric or nautical units.
time (UTC)temp
F
wind
direction
speed
MPH
gust
MPH
rain 1hr
in
rain 24hr
in
rain mn
in
humidity
%
barometer
mb
20260504023946 47 315 0.0 0.0 0.00 0.00 0.00 74 1017.5
20260504023443 48 315 0.0 0.0 0.00 0.00 0.00 77 1017.6
20260504022938 49 315 0.0 0.0 0.00 0.00 0.00 80 1017.5
20260504022434 49 315 0.0 0.0 0.00 0.00 0.00 80 1017.7
20260504021931 49 315 0.0 0.0 0.00 0.00 0.00 79 1017.6
20260504021428 50 315 0.0 0.0 0.00 0.00 0.00 78 1017.6
20260504020926 50 315 0.0 0.0 0.00 0.00 0.00 77 1017.8
20260504020422 50 315 0.0 0.0 0.00 0.00 0.00 76 1017.6
20260504015919 50 315 0.0 0.0 0.00 0.00 0.00 75 1017.6
20260504015415 50 315 0.0 0.0 0.00 0.00 0.00 73 1017.6
20260504014911 50 315 0.0 0.0 0.00 0.00 0.00 71 1017.4
20260504014407 50 315 0.0 0.0 0.00 0.00 0.00 68 1017.5
20260504013904 50 315 0.0 0.0 0.00 0.00 0.00 68 1017.4
20260504013403 50 315 0.0 0.0 0.00 0.00 0.00 67 1017.4
20260504012859 50 315 0.0 0.0 0.00 0.00 0.00 66 1017.6
20260504012357 50 315 0.0 0.0 0.00 0.00 0.00 64 1017.4
20260504011854 50 315 0.0 1.0 0.00 0.00 0.00 63 1017.1
20260504011350 51 315 0.0 1.0 0.00 0.00 0.00 61 1017.3
20260504010846 51 315 1.0 1.0 0.00 0.00 0.00 60 1017.1
20260504010342 51 315 1.0 1.0 0.00 0.00 0.00 57 1017.1
20260504005839 51 315 0.0 0.0 0.00 0.00 0.00 58 1017.0
20260504005336 52 315 0.0 0.0 0.00 0.00 0.00 59 1017.1
20260504004833 52 315 0.0 0.0 0.00 0.00 0.00 58 1016.9
20260504004331 52 315 0.0 0.0 0.00 0.00 0.00 56 1016.9
20260504003827 53 315 0.0 1.0 0.00 0.00 0.00 55 1016.9
20260504003324 53 315 1.0 1.0 0.00 0.00 0.00 54 1016.9
20260504002821 54 315 0.0 0.0 0.00 0.00 0.00 50 1016.6
20260504002317 55 315 0.0 0.0 0.00 0.00 0.00 48 1016.7
20260504001815 55 315 0.0 0.0 0.00 0.00 0.00 48 1016.5
20260504001312 55 315 0.0 1.0 0.00 0.00 0.00 46 1016.6
20260504000809 55 315 0.0 0.0 0.00 0.00 0.00 48 1016.4
20260504000306 55 315 0.0 0.0 0.00 0.00 0.00 48 1016.5
20260503235804 55 315 0.0 0.0 0.00 0.00 0.00 47 1016.4
20260503235301 56 315 0.0 0.0 0.00 0.00 0.00 50 1016.3
20260503234759 56 315 0.0 0.0 0.00 0.00 0.00 48 1016.3
20260503234256 56 303 0.0 0.0 0.00 0.00 0.00 47 1016.5
20260503233754 57 303 0.0 0.0 0.00 0.00 0.00 47 1016.3
20260503233249 57 303 0.0 0.0 0.00 0.00 0.00 45 1016.2
20260503232746 58 302 0.0 0.0 0.00 0.00 0.00 44 1016.3
20260503232243 58 302 0.0 0.0 0.00 0.00 0.00 42 1016.2
20260503231741 59 301 0.0 0.0 0.00 0.00 0.00 41 1016.2
20260503231238 59 297 0.0 0.0 0.00 0.00 0.00 39 1016.0
20260503230734 59 332 0.0 0.0 0.00 0.00 0.00 40 1016.1
20260503230232 60 308 0.0 0.0 0.00 0.00 0.00 40 1016.2
20260503225729 60 343 0.0 0.0 0.00 0.00 0.00 38 1016.3
20260503225229 60 316 0.0 1.0 0.00 0.00 0.00 38 1016.2
20260503224726 60 298 0.0 0.0 0.00 0.00 0.00 37 1016.2
20260503224224 60 307 0.0 0.0 0.00 0.00 0.00 36 1016.2
20260503223721 61 351 0.0 1.0 0.00 0.00 0.00 35 1016.4
20260503223219 61 346 0.0 0.0 0.00 0.00 0.00 37 1016.1
20260503222715 61 3 0.0 1.0 0.00 0.00 0.00 39 1016.1
20260503222213 61 315 0.0 0.0 0.00 0.00 0.00 36 1016.2
20260503221711 61 358 0.0 1.0 0.00 0.00 0.00 36 1016.3
20260503221209 62 56 1.0 1.0 0.00 0.00 0.00 36 1016.2
20260503220705 62 63 1.0 1.0 0.00 0.00 0.00 35 1016.2
20260503220201 62 338 0.0 1.0 0.00 0.00 0.00 36 1016.2
20260503215658 62 351 1.0 2.0 0.00 0.00 0.00 34 1016.1
20260503215155 62 22 1.0 1.0 0.00 0.00 0.00 36 1015.9
20260503214649 62 340 1.0 1.0 0.00 0.00 0.00 37 1016.0
20260503214144 62 295 0.0 1.0 0.00 0.00 0.00 33 1016.1
20260503213643 62 319 0.0 0.0 0.00 0.00 0.00 36 1016.0
20260503213139 62 339 2.0 2.0 0.00 0.00 0.00 34 1016.0
20260503212637 62 53 1.0 1.0 0.00 0.00 0.00 37 1016.1
20260503212134 63 351 1.0 2.0 0.00 0.00 0.00 33 1016.2
20260503211632 63 347 2.0 2.0 0.00 0.00 0.00 34 1016.3
20260503211127 63 340 0.0 1.0 0.00 0.00 0.00 34 1015.9
20260503210624 63 336 0.0 1.0 0.00 0.00 0.00 35 1015.9
20260503210120 62 291 1.0 1.0 0.00 0.00 0.00 34 1015.9
20260503205616 63 11 1.0 2.0 0.00 0.00 0.00 34 1016.0
20260503205113 63 300 1.0 2.0 0.00 0.00 0.00 34 1016.0
20260503204609 62 348 2.0 2.0 0.00 0.00 0.00 34 1016.0
20260503204107 63 316 4.0 4.0 0.00 0.00 0.00 32 1016.0
20260503203604 63 342 0.0 0.0 0.00 0.00 0.00 38 1015.9
20260503203101 63 288 1.0 1.0 0.00 0.00 0.00 34 1015.8
20260503202559 63 323 2.0 4.0 0.00 0.00 0.00 35 1015.8
20260503202056 64 226 2.0 3.0 0.00 0.00 0.00 32 1016.0
20260503201554 64 320 1.0 2.0 0.00 0.00 0.00 33 1016.2
20260503201051 63 340 4.0 4.0 0.00 0.00 0.00 33 1016.2
20260503200547 62 319 1.0 1.0 0.00 0.00 0.00 36 1016.3
20260503200044 63 20 3.0 3.0 0.00 0.00 0.00 34 1016.2
20260503195541 63 10 1.0 1.0 0.00 0.00 0.00 36 1016.2
20260503195038 63 4 2.0 2.0 0.00 0.00 0.00 33 1016.4
20260503194535 64 317 1.0 2.0 0.00 0.00 0.00 34 1016.4
20260503194035 62 11 2.0 4.0 0.00 0.00 0.00 35 1016.6
20260503193532 62 1 2.0 2.0 0.00 0.00 0.00 34 1016.7
20260503193027 62 321 2.0 2.0 0.00 0.00 0.00 35 1016.4
20260503192523 63 62 3.0 4.0 0.00 0.00 0.00 35 1016.7
20260503192020 63 308 0.0 1.0 0.00 0.00 0.00 35 1016.6
20260503191517 62 319 2.0 3.0 0.00 0.00 0.00 35 1016.7
20260503191013 62 307 0.0 1.0 0.00 0.00 0.00 35 1016.8
20260503190510 62 150 3.0 6.0 0.00 0.00 0.00 33 1016.7
20260503190008 62 15 3.0 4.0 0.00 0.00 0.00 36 1016.9
20260503185504 63 229 2.0 2.0 0.00 0.00 0.00 36 1016.8
20260503185003 62 322 1.0 1.0 0.00 0.00 0.00 36 1017.1
20260503184500 62 49 1.0 1.0 0.00 0.00 0.00 36 1017.0
20260503183956 63 358 2.0 2.0 0.00 0.00 0.00 36 1017.1
20260503183453 62 21 1.0 1.0 0.00 0.00 0.00 34 1017.1
20260503182950 62 328 2.0 2.0 0.00 0.00 0.00 34 1017.1
20260503182449 62 5 3.0 4.0 0.00 0.00 0.00 36 1017.1
20260503181946 62 265 1.0 3.0 0.00 0.00 0.00 38 1017.1
20260503181443 61 355 2.0 2.0 0.00 0.00 0.00 38 1017.3
20260503180939 61 344 2.0 2.0 0.00 0.00 0.00 35 1017.3
20260503180437 62 336 0.0 0.0 0.00 0.00 0.00 37 1017.4
20260503175934 61 358 2.0 2.0 0.00 0.00 0.00 36 1017.4
20260503175432 60 334 1.0 2.0 0.00 0.00 0.00 38 1017.4
20260503174927 60 1 3.0 4.0 0.00 0.00 0.00 38 1017.4
20260503174426 60 10 2.0 4.0 0.00 0.00 0.00 37 1017.6
20260503173926 60 56 2.0 3.0 0.00 0.00 0.00 37 1017.6
20260503173422 61 359 3.0 4.0 0.00 0.00 0.00 40 1017.4
20260503172919 59 358 1.0 1.0 0.00 0.00 0.00 36 1017.6
20260503172417 60 16 2.0 3.0 0.00 0.00 0.00 35 1017.6
20260503171913 60 299 1.0 2.0 0.00 0.00 0.00 39 1017.5
20260503171410 60 320 3.0 3.0 0.00 0.00 0.00 38 1017.7
20260503170907 59 24 2.0 2.0 0.00 0.00 0.00 39 1017.8
20260503170403 60 340 2.0 2.0 0.00 0.00 0.00 38 1017.9
20260503150755 55 351 1.0 2.0 0.00 0.00 0.00 37 1018.2
20260503150251 56 15 1.0 2.0 0.00 0.00 0.00 43 1018.2
20260503140216 54 35 2.0 3.0 0.00 0.00 0.00 44 1017.9
20260503131145 51 13 1.0 1.0 0.00 0.00 0.00 54 1018.0
20260503130643 51 355 1.0 2.0 0.00 0.00 0.00 54 1018.1
20260503130140 50 326 3.0 4.0 0.00 0.00 0.00 53 1018.0
20260503120106 48 349 2.0 3.0 0.00 0.00 0.00 63 1017.3
20260503110533 48 105 2.0 2.0 0.00 0.00 0.00 64 1017.0
20260503090420 49 325 1.0 1.0 0.00 0.00 0.00 65 1014.8
20260503081346 50 332 2.0 2.0 0.00 0.00 0.00 68 1014.2
20260503080843 50 332 0.0 0.0 0.00 0.00 0.00 69 1014.1
20260503080340 50 328 1.0 1.0 0.00 0.00 0.00 68 1014.1
20260503072817 51 315 1.0 1.0 0.00 0.00 0.00 62 1013.8
20260503072314 51 331 1.0 2.0 0.00 0.00 0.00 62 1013.8
20260503071809 51 351 0.0 1.0 0.00 0.00 0.00 63 1013.7
20260503071307 51 325 0.0 0.0 0.00 0.00 0.00 63 1013.7
20260503070803 51 353 1.0 2.0 0.00 0.00 0.00 64 1013.4
20260503070302 51 335 1.0 1.0 0.00 0.00 0.00 64 1013.5
20260503060232 50 332 0.0 0.0 0.00 0.00 0.00 76 1013.1
20260503054719 49 332 1.0 1.0 0.00 0.00 0.00 77 1013.1
20260503054216 49 332 1.0 1.0 0.00 0.00 0.00 78 1013.1
20260503053714 49 332 1.0 1.0 0.00 0.00 0.00 78 1013.2
20260503053213 49 335 0.0 0.0 0.00 0.00 0.00 76 1013.3
20260503052708 49 353 1.0 2.0 0.00 0.00 0.00 75 1013.4
20260503052205 49 331 1.0 1.0 0.00 0.00 0.00 75 1013.5
20260503051700 49 351 1.0 2.0 0.00 0.00 0.00 74 1013.5
20260503051159 49 330 1.0 1.0 0.00 0.00 0.00 74 1013.3
20260503050655 49 330 1.0 1.0 0.00 0.00 0.00 75 1013.3
20260503050151 49 329 1.0 1.0 0.00 0.00 0.00 76 1013.4
20260503045649 48 330 1.0 1.0 0.00 0.00 0.00 76 1013.3
20260503045146 48 329 1.0 1.0 0.00 0.00 0.00 76 1013.3
20260503044642 48 329 0.0 1.0 0.00 0.00 0.00 76 1013.2
20260503044140 48 334 1.0 1.0 0.00 0.00 0.00 75 1013.2
20260503043637 48 328 1.0 1.0 0.00 0.00 0.00 76 1013.3
20260503043134 48 328 0.0 1.0 0.00 0.00 0.00 77 1013.6
20260503042630 48 328 0.0 1.0 0.00 0.00 0.00 76 1013.4
20260503042126 48 328 1.0 1.0 0.00 0.00 0.00 76 1013.3
20260503041623 48 328 1.0 1.0 0.00 0.00 0.00 75 1013.5
20260503041121 48 328 0.0 1.0 0.00 0.00 0.00 75 1013.5
20260503040618 48 328 0.0 0.0 0.00 0.00 0.00 75 1013.4
20260503040115 48 328 0.0 1.0 0.00 0.00 0.00 75 1013.4
20260503035612 48 328 0.0 1.0 0.00 0.00 0.00 76 1013.2
20260503035109 49 328 1.0 1.0 0.00 0.00 0.00 75 1013.3
20260503034607 49 328 0.0 1.0 0.00 0.00 0.00 75 1013.3
20260503034104 49 328 1.0 1.0 0.00 0.00 0.00 75 1013.2
20260503033600 49 328 0.0 0.0 0.00 0.00 0.00 75 1013.3
20260503033059 49 328 0.0 1.0 0.00 0.00 0.00 75 1013.2
20260503032557 49 328 1.0 1.0 0.00 0.00 0.00 74 1013.3
20260503032054 50 328 1.0 1.0 0.00 0.00 0.00 75 1013.2
20260503031552 50 328 0.0 0.0 0.00 0.00 0.00 75 1013.3
20260503031049 50 328 0.0 0.0 0.00 0.00 0.00 75 1013.1
20260503030545 50 328 1.0 1.0 0.00 0.00 0.00 75 1013.2
20260503030042 50 328 0.0 0.0 0.00 0.00 0.00 76 1013.3
20260503025539 50 328 0.0 0.0 0.00 0.00 0.00 76 1013.4
20260503025037 50 328 0.0 0.0 0.00 0.00 0.00 75 1013.2
20260503024532 50 328 0.0 0.0 0.00 0.00 0.00 75 1013.3